Location: Kunchanapalle
(16.4623°N, 80.6176°E)
Time: 12:44:20
(UTC+00:00)

Cosmos 407 Rocket - Pass Details

Date: 13 August 2020
Orbit: 744 x 786 km, 74.0° (Epoch: 25 September)

Event Time Altitude Azimuth Distance (km) Brightness Sun altitude
Rises 13:40:37 0° 190° (S) 3,262 6.7 -9.4°
Reaches altitude 10° 13:43:00 10° 189° (S) 2,335 5.9 -9.9°
Maximum altitude 13:48:19 79° 103° (ESE) 799 3.5 -11.1°
Drops below altitude 10° 13:53:36 10° 17° (NNE) 2,326 6.0 -12.3°
Sets 13:55:58 0° 16° (NNE) 3,249 6.8 -12.9°
